Time,TemperatureF,DewpointF,PressureIn,WindDirection,WindDirectionDegrees,WindSpeedMPH,WindSpeedGustMPH,Humidity,HourlyPrecipIn,Conditions,Clouds,dailyrainin,SolarRadiationWatts/m^2,SoftwareType,DateUTC
2013-02-24 00:01:00,67.6,61.2,30.15,NE,45,4.0,5.8,80,0.00,RA,BKN,0.00,0.0,WeatherDisplay:10.37,2013-02-24 10:01:00,
2013-02-24 00:06:00,67.6,61.6,30.15,East,90,4.7,5.8,81,0.00,RA,BKN,0.00,0.0,WeatherDisplay:10.37,2013-02-24 10:06:00,
2013-02-24 00:11:00,67.1,62.1,30.15,NNE,22,4.3,5.8,84,0.00,SCT,BKN,0.00,0.0,WeatherDisplay:10.37,2013-02-24 10:11:00,
2013-02-24 00:16:00,66.9,62.3,30.15,NE,45,3.6,5.8,85,0.00,SCT,BKN,0.00,0.0,WeatherDisplay:10.37,2013-02-24 10:16:00,
2013-02-24 00:21:00,66.9,62.9,30.18,ENE,68,4.0,5.8,87,0.05,RA,BKN,0.05,0.0,WeatherDisplay:10.37,2013-02-24 10:21:00,
2013-02-24 00:26:00,66.6,63.2,30.18,North,0,3.8,5.8,89,0.05,RA,BKN,0.05,0.0,WeatherDisplay:10.37,2013-02-24 10:26:00,
2013-02-24 00:31:00,66.7,63.1,30.18,East,90,2.4,4.7,88,0.05,SCT,BKN,0.05,0.0,WeatherDisplay:10.37,2013-02-24 10:31:00,
2013-02-24 00:36:00,66.7,63.1,30.15,NNE,22,5.4,6.9,88,0.05,SCT,BKN,0.05,0.0,WeatherDisplay:10.37,2013-02-24 10:36:00,
2013-02-24 00:41:00,66.7,63.1,30.15,ENE,68,3.1,6.9,88,0.05,SCT,BKN,0.05,0.0,WeatherDisplay:10.37,2013-02-24 10:41:00,
2013-02-24 00:46:00,67.1,62.4,30.15,NE,45,6.2,13.5,85,0.05,SCT,BKN,0.05,0.0,WeatherDisplay:10.37,2013-02-24 10:46:00,
2013-02-24 00:51:00,67.5,62.5,30.15,NNE,22,2.9,3.5,84,0.05,SCT,BKN,0.05,0.0,WeatherDisplay:10.37,2013-02-24 10:51:00,
2013-02-24 00:56:00,67.6,61.9,30.15,ENE,68,5.6,5.8,82,0.05,SCT,BKN,0.05,0.0,WeatherDisplay:10.37,2013-02-24 10:56:00,
2013-02-24 01:01:00,67.6,61.9,30.15,NNE,22,2.6,3.5,82,0.05,SCT,BKN,0.05,0.0,WeatherDisplay:10.37,2013-02-24 11:01:00,
2013-02-24 01:06:00,67.8,61.8,30.12,East,90,2.4,3.6,81,0.05,SCT,BKN,0.05,0.0,WeatherDisplay:10.37,2013-02-24 11:06:00,
2013-02-24 01:11:00,67.8,61.8,30.12,ENE,68,1.6,3.1,81,0.05,SCT,BKN,0.05,0.0,WeatherDisplay:10.37,2013-02-24 11:11:00,
2013-02-24 01:16:00,68.2,61.8,30.12,NE,45,6.2,10.4,80,0.05,SCT,BKN,0.05,0.0,WeatherDisplay:10.37,2013-02-24 11:16:00,
2013-02-24 01:21:00,68.0,61.2,30.15,North,0,4.0,5.8,79,0.05,SCT,BKN,0.05,0.0,WeatherDisplay:10.37,2013-02-24 11:21:00,
2013-02-24 01:26:00,68.2,61.1,30.15,WSW,248,4.7,6.9,78,0.00,SCT,BKN,0.05,0.0,WeatherDisplay:10.37,2013-02-24 11:26:00,
2013-02-24 01:31:00,68.2,61.4,30.15,NE,45,3.3,5.8,79,0.00,SCT,BKN,0.05,0.0,WeatherDisplay:10.37,2013-02-24 11:31:00,
2013-02-24 01:36:00,68.2,61.4,30.12,North,0,2.0,5.6,79,0.00,SCT,BKN,0.05,0.0,WeatherDisplay:10.37,2013-02-24 11:36:00,
2013-02-24 01:41:00,68.2,61.1,30.12,East,90,5.4,8.1,78,0.00,SCT,BKN,0.05,0.0,WeatherDisplay:10.37,2013-02-24 11:41:00,
2013-02-24 01:46:00,68.4,61.6,30.12,SE,135,3.1,5.8,79,0.00,SCT,BKN,0.05,0.0,WeatherDisplay:10.37,2013-02-24 11:46:00,
2013-02-24 01:51:00,68.4,61.6,30.12,East,90,0.0,4.3,79,0.00,SCT,BKN,0.05,0.0,WeatherDisplay:10.37,2013-02-24 11:51:00,
2013-02-24 01:56:00,68.5,60.3,30.12,NE,45,5.6,6.9,75,0.00,SCT,BKN,0.05,0.0,WeatherDisplay:10.37,2013-02-24 11:56:00,
2013-02-24 02:01:00,68.4,60.1,30.12,NE,45,2.9,4.6,75,0.00,SCT,BKN,0.05,0.0,WeatherDisplay:10.37,2013-02-24 12:01:00,
2013-02-24 02:06:00,68.4,60.1,30.09,ENE,68,4.5,5.8,75,0.00,SCT,BKN,0.05,0.0,WeatherDisplay:10.37,2013-02-24 12:06:00,
2013-02-24 02:11:00,68.4,60.1,30.09,ENE,68,3.6,5.8,75,0.00,SCT,BKN,0.05,0.0,WeatherDisplay:10.37,2013-02-24 12:11:00,
2013-02-24 02:16:00,68.4,60.5,30.09,North,0,6.4,10.4,76,0.00,SCT,BKN,0.05,0.0,WeatherDisplay:10.37,2013-02-24 12:16:00,
2013-02-24 02:21:00,68.4,60.9,30.12,NE,45,6.0,6.0,77,0.00,SCT,BKN,0.05,0.0,WeatherDisplay:10.37,2013-02-24 12:21:00,
2013-02-24 02:26:00,68.0,61.2,30.12,ENE,68,6.0,9.2,79,0.00,SCT,BKN,0.05,0.0,WeatherDisplay:10.37,2013-02-24 12:26:00,
2013-02-24 02:31:00,67.3,61.2,30.12,ESE,112,2.2,4.6,81,0.00,SCT,BKN,0.05,0.0,WeatherDisplay:10.37,2013-02-24 12:31:00,
2013-02-24 02:36:00,67.5,61.1,30.12,ENE,68,7.8,10.4,80,0.00,SCT,BKN,0.05,0.0,WeatherDisplay:10.37,2013-02-24 12:36:00,
2013-02-24 02:41:00,67.5,61.4,30.12,SSW,202,3.8,3.8,81,0.00,SCT,BKN,0.05,0.0,WeatherDisplay:10.37,2013-02-24 12:41:00,
2013-02-24 02:46:00,67.5,61.1,30.12,North,0,2.9,5.8,80,0.00,SCT,BKN,0.05,0.0,WeatherDisplay:10.37,2013-02-24 12:46:00,
2013-02-24 02:51:00,67.5,60.7,30.12,ENE,68,3.1,5.8,79,0.00,SCT,BKN,0.05,0.0,WeatherDisplay:10.37,2013-02-24 12:51:00,
2013-02-24 02:56:00,67.5,60.7,30.12,ESE,112,3.3,5.8,79,0.00,SCT,BKN,0.05,0.0,WeatherDisplay:10.37,2013-02-24 12:56:00,
2013-02-24 03:01:00,67.1,61.8,30.12,East,90,4.5,5.8,83,0.00,SCT,BKN,0.05,0.0,WeatherDisplay:10.37,2013-02-24 13:01:00,
2013-02-24 03:06:00,66.6,61.9,30.12,ENE,68,2.6,6.9,85,0.00,SCT,BKN,0.05,0.0,WeatherDisplay:10.37,2013-02-24 13:06:00,
2013-02-24 03:11:00,66.6,62.2,30.12,SSW,202,6.7,8.1,86,0.00,SCT,BKN,0.05,0.0,WeatherDisplay:10.37,2013-02-24 13:11:00,
2013-02-24 03:16:00,66.6,62.2,30.12,East,90,7.1,11.5,86,0.00,SCT,BKN,0.05,0.0,WeatherDisplay:10.37,2013-02-24 13:16:00,
2013-02-24 03:21:00,66.7,61.1,30.12,East,90,4.3,7.6,82,0.00,SCT,BKN,0.05,0.0,WeatherDisplay:10.37,2013-02-24 13:21:00,
2013-02-24 03:26:00,67.1,61.1,30.12,East,90,4.0,5.8,81,0.00,SCT,BKN,0.05,0.0,WeatherDisplay:10.37,2013-02-24 13:26:00,
2013-02-24 03:31:00,66.9,61.2,30.12,SSE,158,3.1,5.6,82,0.00,SCT,BKN,0.05,0.0,WeatherDisplay:10.37,2013-02-24 13:31:00,
2013-02-24 03:36:00,66.9,61.2,30.12,ESE,112,1.6,6.9,82,0.00,SCT,BKN,0.05,0.0,WeatherDisplay:10.37,2013-02-24 13:36:00,
2013-02-24 03:41:00,67.1,61.1,30.12,NE,45,2.6,4.6,81,0.00,SCT,BKN,0.05,0.0,WeatherDisplay:10.37,2013-02-24 13:41:00,
2013-02-24 03:46:00,67.3,61.2,30.12,NNE,22,4.9,5.8,81,0.00,SCT,BKN,0.05,0.0,WeatherDisplay:10.37,2013-02-24 13:46:00,
2013-02-24 03:51:00,67.5,61.8,30.12,East,90,3.1,5.9,82,0.00,SCT,BKN,0.05,0.0,WeatherDisplay:10.37,2013-02-24 13:51:00,
2013-02-24 03:56:00,67.5,61.1,30.12,ENE,68,2.9,5.8,80,0.00,SCT,BKN,0.05,0.0,WeatherDisplay:10.37,2013-02-24 13:56:00,
2013-02-24 04:01:00,67.6,61.6,30.12,East,90,3.3,5.9,81,0.00,SCT,BKN,0.05,0.0,WeatherDisplay:10.37,2013-02-24 14:01:00,
2013-02-24 04:06:00,67.8,60.7,30.09,ENE,68,4.5,6.9,78,0.00,SCT,BKN,0.05,0.0,WeatherDisplay:10.37,2013-02-24 14:06:00,
2013-02-24 04:11:00,68.0,60.9,30.09,North,0,2.0,5.8,78,0.00,SCT,BKN,0.05,0.0,WeatherDisplay:10.37,2013-02-24 14:11:00,
2013-02-24 04:16:00,67.8,61.4,30.09,ENE,68,4.3,4.6,80,0.00,SCT,BKN,0.05,0.0,WeatherDisplay:10.37,2013-02-24 14:16:00,
2013-02-24 04:21:00,67.5,61.1,30.12,East,90,4.3,5.8,80,0.00,SCT,BKN,0.05,0.0,WeatherDisplay:10.37,2013-02-24 14:21:00,
2013-02-24 04:26:00,67.5,61.1,30.12,ENE,68,3.8,8.1,80,0.00,SCT,BKN,0.05,0.0,WeatherDisplay:10.37,2013-02-24 14:26:00,
2013-02-24 04:31:00,67.5,61.4,30.12,NNE,22,2.0,5.8,81,0.00,SCT,BKN,0.05,0.0,WeatherDisplay:10.37,2013-02-24 14:31:00,
2013-02-24 04:36:00,67.6,60.5,30.09,East,90,4.0,11.5,78,0.00,SCT,BKN,0.05,0.0,WeatherDisplay:10.37,2013-02-24 14:36:00,
2013-02-24 04:41:00,67.8,61.1,30.09,East,90,4.0,5.8,79,0.00,SCT,BKN,0.05,0.0,WeatherDisplay:10.37,2013-02-24 14:41:00,
2013-02-24 04:46:00,67.8,61.1,30.09,ENE,68,2.4,2.4,79,0.00,SCT,BKN,0.05,0.0,WeatherDisplay:10.37,2013-02-24 14:46:00,
2013-02-24 04:51:00,67.8,61.1,30.09,SSE,158,2.9,3.5,79,0.00,SCT,BKN,0.05,0.0,WeatherDisplay:10.37,2013-02-24 14:51:00,
2013-02-24 04:56:00,67.8,60.7,30.09,NE,45,5.6,6.9,78,0.00,SCT,BKN,0.05,0.0,WeatherDisplay:10.37,2013-02-24 14:56:00,
2013-02-24 05:01:00,68.0,60.9,30.09,North,0,6.0,8.1,78,0.00,SCT,BKN,0.05,0.0,WeatherDisplay:10.37,2013-02-24 15:01:00,
2013-02-24 05:06:00,68.0,60.9,30.12,ENE,68,4.9,8.1,78,0.00,SCT,BKN,0.05,0.0,WeatherDisplay:10.37,2013-02-24 15:06:00,
2013-02-24 05:11:00,68.2,60.7,30.12,East,90,4.9,6.9,77,0.00,SCT,BKN,0.05,0.0,WeatherDisplay:10.37,2013-02-24 15:11:00,
2013-02-24 05:16:00,68.2,60.7,30.12,SSW,202,4.3,5.8,77,0.00,SCT,BKN,0.05,0.0,WeatherDisplay:10.37,2013-02-24 15:16:00,
2013-02-24 05:21:00,68.2,60.3,30.09,ENE,68,3.8,5.9,76,0.00,SCT,BKN,0.05,0.0,WeatherDisplay:10.37,2013-02-24 15:21:00,
2013-02-24 05:26:00,68.4,60.1,30.09,East,90,4.0,6.9,75,0.00,SCT,BKN,0.05,0.0,WeatherDisplay:10.37,2013-02-24 15:26:00,
2013-02-24 05:31:00,68.2,60.7,30.09,ESE,112,4.0,6.9,77,0.00,SCT,BKN,0.05,0.0,WeatherDisplay:10.37,2013-02-24 15:31:00,
2013-02-24 05:36:00,68.2,60.7,30.12,ENE,68,3.3,4.6,77,0.00,SCT,BKN,0.05,0.0,WeatherDisplay:10.37,2013-02-24 15:36:00,
2013-02-24 05:41:00,68.2,60.7,30.12,East,90,1.6,2.3,77,0.00,SCT,BKN,0.05,0.0,WeatherDisplay:10.37,2013-02-24 15:41:00,
2013-02-24 05:46:00,68.0,60.5,30.12,SSE,158,3.1,3.5,77,0.00,SCT,BKN,0.05,0.0,WeatherDisplay:10.37,2013-02-24 15:46:00,
2013-02-24 05:51:00,68.2,60.7,30.12,NNE,22,6.0,6.9,77,0.00,SCT,BKN,0.05,0.0,WeatherDisplay:10.37,2013-02-24 15:51:00,
2013-02-24 05:56:00,68.0,60.5,30.12,ESE,112,3.3,3.5,77,0.00,SCT,BKN,0.05,0.0,WeatherDisplay:10.37,2013-02-24 15:56:00,
2013-02-24 06:01:00,68.0,60.9,30.12,East,90,5.4,6.9,78,0.00,SCT,BKN,0.05,0.0,WeatherDisplay:10.37,2013-02-24 16:01:00,
2013-02-24 06:06:00,68.2,60.3,30.12,ENE,68,3.8,10.7,76,0.00,SCT,BKN,0.05,0.0,WeatherDisplay:10.37,2013-02-24 16:06:00,
2013-02-24 06:11:00,68.2,60.3,30.12,South,180,2.0,2.3,76,0.00,SCT,BKN,0.05,0.0,WeatherDisplay:10.37,2013-02-24 16:11:00,
2013-02-24 06:16:00,68.0,60.5,30.12,ESE,112,3.3,4.6,77,0.00,SCT,BKN,0.05,0.0,WeatherDisplay:10.37,2013-02-24 16:16:00,
2013-02-24 06:21:00,68.2,60.3,30.12,South,180,7.1,12.7,76,0.00,SCT,BKN,0.05,0.0,WeatherDisplay:10.37,2013-02-24 16:21:00,
2013-02-24 06:26:00,68.2,60.3,30.12,SE,135,4.3,6.9,76,0.00,SCT,BKN,0.05,0.0,WeatherDisplay:10.37,2013-02-24 16:26:00,
2013-02-24 06:31:00,68.2,60.3,30.12,South,180,3.1,5.8,76,0.00,SCT,BKN,0.05,0.0,WeatherDisplay:10.37,2013-02-24 16:31:00,
2013-02-24 06:36:00,68.2,60.0,30.12,SSE,158,2.4,3.5,75,0.00,SCT,BKN,0.05,0.0,WeatherDisplay:10.37,2013-02-24 16:36:00,
2013-02-24 06:41:00,68.2,60.0,30.12,NNE,22,3.8,5.8,75,0.00,SCT,BKN,0.05,0.0,WeatherDisplay:10.37,2013-02-24 16:41:00,
2013-02-24 06:46:00,68.2,60.3,30.12,NNE,22,4.9,6.9,76,0.00,SCT,BKN,0.05,0.0,WeatherDisplay:10.37,2013-02-24 16:46:00,
2013-02-24 06:51:00,68.2,60.3,30.12,South,180,0.0,5.8,76,0.00,SCT,BKN,0.05,0.0,WeatherDisplay:10.37,2013-02-24 16:51:00,
2013-02-24 06:56:00,68.0,60.5,30.12,ENE,68,3.8,4.6,77,0.00,SCT,BKN,0.05,0.0,WeatherDisplay:10.37,2013-02-24 16:56:00,
2013-02-24 07:01:00,68.2,60.3,30.12,East,90,6.4,6.9,76,0.00,SCT,BKN,0.05,0.0,WeatherDisplay:10.37,2013-02-24 17:01:00,
2013-02-24 07:06:00,68.2,60.7,30.12,ESE,112,1.4,4.6,77,0.00,SCT,BKN,0.05,0.0,WeatherDisplay:10.37,2013-02-24 17:06:00,
2013-02-24 07:11:00,68.2,60.7,30.12,WSW,248,1.6,2.3,77,0.00,SCT,BKN,0.05,0.0,WeatherDisplay:10.37,2013-02-24 17:11:00,
2013-02-24 07:16:00,68.4,60.5,30.12,East,90,3.1,3.5,76,0.00,SCT,BKN,0.05,0.0,WeatherDisplay:10.37,2013-02-24 17:16:00,
2013-02-24 07:21:00,68.4,60.1,30.12,ENE,68,2.6,6.9,75,0.00,SCT,BKN,0.05,0.0,WeatherDisplay:10.37,2013-02-24 17:21:00,
2013-02-24 07:26:00,68.4,60.1,30.12,East,90,3.3,4.6,75,0.00,SCT,BKN,0.05,0.0,WeatherDisplay:10.37,2013-02-24 17:26:00,
2013-02-24 07:31:00,68.4,60.1,30.12,West,270,2.4,4.9,75,0.00,SCT,BKN,0.05,0.0,WeatherDisplay:10.37,2013-02-24 17:31:00,
2013-02-24 07:36:00,68.7,60.5,30.12,ENE,68,5.9,6.9,75,0.00,SCT,BKN,0.05,0.0,WeatherDisplay:10.37,2013-02-24 17:36:00,
2013-02-24 07:41:00,68.7,60.1,30.12,NW,315,2.4,3.5,74,0.00,SCT,BKN,0.05,0.0,WeatherDisplay:10.37,2013-02-24 17:41:00,
2013-02-24 07:46:00,68.7,60.1,30.12,ENE,68,6.0,6.0,74,0.00,SCT,BKN,0.05,0.0,WeatherDisplay:10.37,2013-02-24 17:46:00,
2013-02-24 07:51:00,68.7,60.1,30.12,WNW,292,7.1,8.1,74,0.00,SCT,BKN,0.05,0.0,WeatherDisplay:10.37,2013-02-24 17:51:00,
2013-02-24 07:56:00,68.5,60.3,30.12,NE,45,3.6,4.9,75,0.00,SCT,BKN,0.05,0.0,WeatherDisplay:10.37,2013-02-24 17:56:00,
2013-02-24 08:01:00,68.9,60.6,30.12,NE,45,3.8,4.6,75,0.00,SCT,BKN,0.05,0.0,WeatherDisplay:10.37,2013-02-24 18:01:00,
2013-02-24 08:06:00,68.9,60.6,30.12,East,90,6.4,8.1,75,0.00,SCT,BKN,0.05,0.0,WeatherDisplay:10.37,2013-02-24 18:06:00,
2013-02-24 08:11:00,68.9,60.6,30.12,NE,45,4.3,5.8,75,0.00,SCT,BKN,0.05,0.0,WeatherDisplay:10.37,2013-02-24 18:11:00,
2013-02-24 08:16:00,69.1,61.2,30.12,ENE,68,2.2,3.5,76,0.00,SCT,BKN,0.05,0.0,WeatherDisplay:10.37,2013-02-24 18:16:00,
2013-02-24 08:21:00,69.3,60.2,30.09,East,90,5.4,5.8,73,0.00,SCT,BKN,0.05,0.0,WeatherDisplay:10.37,2013-02-24 18:21:00,
2013-02-24 08:26:00,69.3,60.2,30.09,ENE,68,3.8,8.1,73,0.00,SCT,BKN,0.05,0.0,WeatherDisplay:10.37,2013-02-24 18:26:00,
2013-02-24 08:31:00,69.4,60.4,30.09,SSE,158,3.1,3.5,73,0.00,SCT,BKN,0.05,0.0,WeatherDisplay:10.37,2013-02-24 18:31:00,
2013-02-24 08:36:00,69.6,61.0,30.12,NNE,22,2.9,3.5,74,0.00,SCT,BKN,0.05,0.0,WeatherDisplay:10.37,2013-02-24 18:36:00,
2013-02-24 08:41:00,69.4,60.8,30.12,East,90,4.9,9.2,74,0.00,SCT,BKN,0.05,0.0,WeatherDisplay:10.37,2013-02-24 18:41:00,
2013-02-24 08:46:00,69.4,60.4,30.12,East,90,4.0,6.9,73,0.00,SCT,BKN,0.05,0.0,WeatherDisplay:10.37,2013-02-24 18:46:00,
2013-02-24 08:51:00,69.3,61.4,30.09,East,90,3.3,4.6,76,0.00,SCT,BKN,0.05,0.0,WeatherDisplay:10.37,2013-02-24 18:51:00,
2013-02-24 08:56:00,69.1,61.2,30.09,NNE,22,4.3,4.6,76,0.00,SCT,BKN,0.05,0.0,WeatherDisplay:10.37,2013-02-24 18:56:00,
2013-02-24 09:01:00,69.3,61.0,30.09,East,90,3.6,4.6,75,0.00,SCT,BKN,0.05,0.0,WeatherDisplay:10.37,2013-02-24 19:01:00,
2013-02-24 09:06:00,69.6,61.7,30.12,ENE,68,5.6,9.2,76,0.00,SCT,BKN,0.05,125.0,WeatherDisplay:10.37,2013-02-24 19:06:00,
2013-02-24 09:11:00,70.0,60.9,30.12,ENE,68,4.7,6.9,73,0.00,SCT,BKN,0.05,125.0,WeatherDisplay:10.37,2013-02-24 19:11:00,
2013-02-24 09:16:00,70.3,60.5,30.12,NE,45,7.6,9.2,71,0.00,SCT,BKN,0.05,125.0,WeatherDisplay:10.37,2013-02-24 19:16:00,
2013-02-24 09:21:00,70.5,59.9,30.12,NE,45,6.0,8.1,69,0.00,SCT,BKN,0.05,125.0,WeatherDisplay:10.37,2013-02-24 19:21:00,
2013-02-24 09:26:00,70.5,60.7,30.12,NE,45,3.3,6.9,71,0.00,RA,BKN,0.05,125.0,WeatherDisplay:10.37,2013-02-24 19:26:00,
2013-02-24 09:31:00,70.5,60.7,30.12,NE,45,4.7,5.8,71,0.00,RA,BKN,0.05,125.0,WeatherDisplay:10.37,2013-02-24 19:31:00,
2013-02-24 09:36:00,70.7,60.8,30.12,ESE,112,6.4,10.4,71,0.00,SCT,BKN,0.05,125.0,WeatherDisplay:10.37,2013-02-24 19:36:00,
2013-02-24 09:41:00,70.7,60.4,30.12,NNE,22,6.4,8.1,70,0.00,SCT,BKN,0.05,0.0,WeatherDisplay:10.37,2013-02-24 19:41:00,
2013-02-24 09:46:00,70.7,60.4,30.12,ENE,68,6.9,6.9,70,0.00,SCT,BKN,0.05,125.0,WeatherDisplay:10.37,2013-02-24 19:46:00,
2013-02-24 09:51:00,70.7,60.4,30.12,NNE,22,7.1,10.4,70,0.00,SCT,BKN,0.05,125.0,WeatherDisplay:10.37,2013-02-24 19:51:00,
2013-02-24 09:56:00,70.7,60.8,30.12,East,90,4.7,5.8,71,0.00,SCT,BKN,0.05,125.0,WeatherDisplay:10.37,2013-02-24 19:56:00,
2013-02-24 10:01:00,71.1,61.2,30.12,NW,315,5.9,8.5,71,0.00,SCT,BKN,0.05,125.0,WeatherDisplay:10.37,2013-02-24 20:01:00,
2013-02-24 10:06:00,70.9,60.6,30.12,ENE,68,9.4,10.4,70,0.00,SCT,BKN,0.05,125.0,WeatherDisplay:10.37,2013-02-24 20:06:00,
2013-02-24 10:11:00,70.9,61.0,30.12,NE,45,6.2,9.2,71,0.00,SCT,BKN,0.05,250.0,WeatherDisplay:10.37,2013-02-24 20:11:00,
2013-02-24 10:16:00,71.2,61.4,30.12,ENE,68,7.6,10.4,71,0.00,SCT,BKN,0.05,125.0,WeatherDisplay:10.37,2013-02-24 20:16:00,
2013-02-24 10:21:00,71.6,61.3,30.12,NE,45,6.9,8.1,70,0.00,SCT,BKN,0.05,125.0,WeatherDisplay:10.37,2013-02-24 20:21:00,
2013-02-24 10:26:00,71.4,60.7,30.12,NE,45,8.1,10.4,69,0.00,SCT,BKN,0.05,125.0,WeatherDisplay:10.37,2013-02-24 20:26:00,
2013-02-24 10:31:00,71.6,60.5,30.12,NNE,22,4.7,8.1,68,0.00,SCT,BKN,0.05,125.0,WeatherDisplay:10.37,2013-02-24 20:31:00,
2013-02-24 10:36:00,71.6,61.3,30.12,NNE,22,6.2,9.2,70,0.00,SCT,BKN,0.05,125.0,WeatherDisplay:10.37,2013-02-24 20:36:00,
2013-02-24 10:41:00,71.6,60.1,30.12,NE,45,5.9,9.2,67,0.00,SCT,BKN,0.05,125.0,WeatherDisplay:10.37,2013-02-24 20:41:00,
2013-02-24 10:46:00,71.6,60.5,30.12,NE,45,8.7,8.7,68,0.00,SCT,BKN,0.05,125.0,WeatherDisplay:10.37,2013-02-24 20:46:00,
2013-02-24 10:51:00,71.6,60.1,30.12,NNE,22,6.9,10.4,67,0.00,SCT,BKN,0.05,125.0,WeatherDisplay:10.37,2013-02-24 20:51:00,
2013-02-24 10:56:00,71.6,60.5,30.12,North,0,5.4,6.9,68,0.00,SCT,BKN,0.05,125.0,WeatherDisplay:10.37,2013-02-24 20:56:00,
2013-02-24 11:01:00,71.6,60.1,30.12,NNE,22,7.8,10.4,67,0.00,SCT,BKN,0.05,125.0,WeatherDisplay:10.37,2013-02-24 21:01:00,
2013-02-24 11:06:00,71.8,60.2,30.12,NE,45,6.9,8.1,67,0.00,SCT,BKN,0.05,125.0,WeatherDisplay:10.37,2013-02-24 21:06:00,
2013-02-24 11:11:00,72.1,61.0,30.12,ENE,68,6.4,12.7,68,0.00,SCT,BKN,0.05,250.0,WeatherDisplay:10.37,2013-02-24 21:11:00,
2013-02-24 11:16:00,72.5,60.9,30.12,ENE,68,9.4,12.7,67,0.00,SCT,BKN,0.05,250.0,WeatherDisplay:10.37,2013-02-24 21:16:00,
2013-02-24 11:21:00,72.5,61.3,30.15,North,0,4.7,6.9,68,0.00,SCT,BKN,0.05,125.0,WeatherDisplay:10.37,2013-02-24 21:21:00,
2013-02-24 11:26:00,72.5,61.3,30.15,East,90,6.2,8.1,68,0.00,SCT,BKN,0.05,250.0,WeatherDisplay:10.37,2013-02-24 21:26:00,
2013-02-24 11:31:00,72.5,60.5,30.15,NE,45,4.5,6.9,66,0.00,SCT,BKN,0.05,125.0,WeatherDisplay:10.37,2013-02-24 21:31:00,
2013-02-24 11:36:00,72.9,60.8,30.12,North,0,5.6,9.2,66,0.00,SCT,BKN,0.05,250.0,WeatherDisplay:10.37,2013-02-24 21:36:00,
2013-02-24 11:41:00,73.0,61.9,30.12,NE,45,4.7,9.2,68,0.00,SCT,BKN,0.05,500.0,WeatherDisplay:10.37,2013-02-24 21:41:00,
2013-02-24 11:46:00,73.0,60.1,30.12,ENE,68,5.4,10.5,64,0.00,SCT,BKN,0.05,125.0,WeatherDisplay:10.37,2013-02-24 21:46:00,
2013-02-24 11:51:00,73.0,60.6,30.12,NE,45,7.1,7.1,65,0.00,SCT,BKN,0.05,125.0,WeatherDisplay:10.37,2013-02-24 21:51:00,
2013-02-24 11:56:00,73.2,61.2,30.12,NNE,22,6.9,6.9,66,0.00,SCT,BKN,0.05,250.0,WeatherDisplay:10.37,2013-02-24 21:56:00,
2013-02-24 12:01:00,73.4,61.3,30.12,NNE,22,6.0,8.1,66,0.00,SCT,BKN,0.05,125.0,WeatherDisplay:10.37,2013-02-24 22:01:00,
2013-02-24 12:06:00,72.9,60.8,30.12,ENE,68,7.4,9.2,66,0.00,SCT,BKN,0.05,250.0,WeatherDisplay:10.37,2013-02-24 22:06:00,
2013-02-24 12:11:00,73.0,61.0,30.12,NE,45,8.5,9.2,66,0.00,SCT,BKN,0.05,250.0,WeatherDisplay:10.37,2013-02-24 22:11:00,
2013-02-24 12:16:00,73.0,60.6,30.12,NNE,22,9.2,10.4,65,0.00,SCT,BKN,0.05,125.0,WeatherDisplay:10.37,2013-02-24 22:16:00,
2013-02-24 12:21:00,73.0,60.6,30.12,NE,45,8.1,9.2,65,0.00,SCT,BKN,0.05,375.0,WeatherDisplay:10.37,2013-02-24 22:21:00,
2013-02-24 12:26:00,73.4,61.3,30.12,ENE,68,7.8,9.2,66,0.00,SCT,BKN,0.05,250.0,WeatherDisplay:10.37,2013-02-24 22:26:00,
2013-02-24 12:31:00,73.4,61.3,30.12,NE,45,7.1,11.5,66,0.00,SCT,BKN,0.05,500.0,WeatherDisplay:10.37,2013-02-24 22:31:00,
2013-02-24 12:36:00,73.4,60.5,30.12,NE,45,6.7,8.1,64,0.00,SCT,BKN,0.05,125.0,WeatherDisplay:10.37,2013-02-24 22:36:00,
2013-02-24 12:41:00,73.6,60.6,30.12,ENE,68,10.9,19.6,64,0.00,SCT,BKN,0.05,500.0,WeatherDisplay:10.37,2013-02-24 22:41:00,
2013-02-24 12:46:00,73.9,61.4,30.12,NNE,22,4.5,6.0,65,0.00,SCT,BKN,0.05,1250.0,WeatherDisplay:10.37,2013-02-24 22:46:00,
2013-02-24 12:51:00,74.7,61.7,30.12,NE,45,8.1,9.2,64,0.00,SCT,BKN,0.05,1250.0,WeatherDisplay:10.37,2013-02-24 22:51:00,
2013-02-24 12:56:00,76.1,62.1,30.12,NE,45,7.1,8.1,62,0.00,SCT,BKN,0.05,1375.0,WeatherDisplay:10.37,2013-02-24 22:56:00,
2013-02-24 13:01:00,77.7,63.7,30.12,North,0,2.6,4.6,62,0.00,SCT,BKN,0.05,250.0,WeatherDisplay:10.37,2013-02-24 23:01:00,
2013-02-24 13:06:00,78.6,63.6,30.12,South,180,3.8,5.8,60,0.00,SCT,BKN,0.05,500.0,WeatherDisplay:10.37,2013-02-24 23:06:00,
2013-02-24 13:11:00,78.3,61.3,30.12,North,0,3.3,4.6,56,0.00,SCT,BKN,0.05,250.0,WeatherDisplay:10.37,2013-02-24 23:11:00,
2013-02-24 13:16:00,78.3,59.7,30.12,NE,45,8.5,12.7,53,0.00,SCT,BKN,0.05,375.0,WeatherDisplay:10.37,2013-02-24 23:16:00,
2013-02-24 13:21:00,76.8,59.4,30.12,NNE,22,4.5,6.9,55,0.00,SCT,BKN,0.05,1125.0,WeatherDisplay:10.37,2013-02-24 23:21:00,
2013-02-24 13:26:00,78.4,61.4,30.12,NW,315,2.0,15.6,56,0.00,SCT,BKN,0.05,1375.0,WeatherDisplay:10.37,2013-02-24 23:26:00,
2013-02-24 13:31:00,78.4,61.4,30.12,NE,45,4.5,6.9,56,0.00,SCT,BKN,0.05,250.0,WeatherDisplay:10.37,2013-02-24 23:31:00,
2013-02-24 13:36:00,78.3,62.8,30.09,West,270,3.3,4.6,59,0.00,SCT,BKN,0.05,1375.0,WeatherDisplay:10.37,2013-02-24 23:36:00,
2013-02-24 13:41:00,77.0,61.6,30.09,North,0,2.0,2.4,59,0.00,SCT,BKN,0.05,125.0,WeatherDisplay:10.37,2013-02-24 23:41:00,
2013-02-24 13:46:00,75.6,61.2,30.09,North,0,1.6,2.6,61,0.00,SCT,BKN,0.05,250.0,WeatherDisplay:10.37,2013-02-24 23:46:00,
2013-02-24 13:51:00,74.8,61.8,30.12,West,270,4.9,4.9,64,0.00,SCT,BKN,0.05,250.0,WeatherDisplay:10.37,2013-02-24 23:51:00,
2013-02-24 13:56:00,74.3,61.3,30.12,NE,45,2.4,5.8,64,0.00,SCT,BKN,0.05,250.0,WeatherDisplay:10.37,2013-02-24 23:56:00,
2013-02-24 14:01:00,74.5,61.5,30.12,SW,225,2.2,3.5,64,0.00,SCT,BKN,0.05,250.0,WeatherDisplay:10.37,2013-02-25 00:01:00,
2013-02-24 14:06:00,72.9,62.1,30.12,ENE,68,3.1,5.8,69,0.00,SCT,BKN,0.05,125.0,WeatherDisplay:10.37,2013-02-25 00:06:00,
2013-02-24 14:11:00,71.8,61.9,30.12,ENE,68,3.1,5.8,71,0.00,SCT,BKN,0.05,125.0,WeatherDisplay:10.37,2013-02-25 00:11:00,
2013-02-24 14:17:00,71.2,61.7,30.12,East,90,3.3,8.1,72,0.00,SCT,BKN,0.05,125.0,WeatherDisplay:10.37,2013-02-25 00:17:00,
2013-02-24 14:22:00,71.4,61.5,30.09,ESE,112,3.8,8.1,71,0.00,SCT,BKN,0.05,125.0,WeatherDisplay:10.37,2013-02-25 00:22:00,
2013-02-24 14:27:00,71.8,62.7,30.09,SSW,202,2.4,4.6,73,0.00,SCT,BKN,0.05,125.0,WeatherDisplay:10.37,2013-02-25 00:27:00,
2013-02-24 14:32:00,71.4,61.5,30.09,East,90,7.1,10.4,71,0.00,SCT,BKN,0.05,125.0,WeatherDisplay:10.37,2013-02-25 00:32:00,
2013-02-24 14:37:00,71.8,61.1,30.06,ENE,68,2.0,5.8,69,0.00,SCT,BKN,0.05,125.0,WeatherDisplay:10.37,2013-02-25 00:37:00,
2013-02-24 14:42:00,71.8,61.5,30.06,SSW,202,3.3,5.8,70,0.00,SCT,BKN,0.05,0.0,WeatherDisplay:10.37,2013-02-25 00:42:00,
2013-02-24 14:47:00,72.0,61.6,30.06,NE,45,5.4,8.1,70,0.00,SCT,BKN,0.05,125.0,WeatherDisplay:10.37,2013-02-25 00:47:00,
2013-02-24 14:52:00,72.3,62.0,30.06,East,90,3.8,4.6,70,0.00,SCT,BKN,0.05,125.0,WeatherDisplay:10.37,2013-02-25 00:52:00,
2013-02-24 14:57:00,73.2,62.4,30.06,NE,45,4.9,6.9,69,0.00,SCT,BKN,0.05,250.0,WeatherDisplay:10.37,2013-02-25 00:57:00,
2013-02-24 15:02:00,74.1,62.5,30.06,SSE,158,4.0,5.8,67,0.00,SCT,BKN,0.05,125.0,WeatherDisplay:10.37,2013-02-25 01:02:00,
2013-02-24 15:07:00,75.0,62.9,30.03,NE,45,3.1,4.6,66,0.00,SCT,BKN,0.05,125.0,WeatherDisplay:10.37,2013-02-25 01:07:00,
2013-02-24 15:12:00,72.1,62.2,30.03,SE,135,3.1,4.6,71,0.00,SCT,BKN,0.05,125.0,WeatherDisplay:10.37,2013-02-25 01:12:00,
2013-02-24 15:17:00,70.7,62.8,30.03,East,90,3.6,5.8,76,0.00,SCT,BKN,0.05,125.0,WeatherDisplay:10.37,2013-02-25 01:17:00,
2013-02-24 15:22:00,70.9,63.7,30.06,East,90,4.3,5.8,78,0.00,SCT,BKN,0.05,125.0,WeatherDisplay:10.37,2013-02-25 01:22:00,
2013-02-24 15:27:00,71.8,64.2,30.06,NE,45,4.7,8.1,77,0.00,SCT,BKN,0.05,750.0,WeatherDisplay:10.37,2013-02-25 01:27:00,
2013-02-24 15:32:00,73.8,65.3,30.06,NNE,22,0.9,3.5,75,0.00,SCT,BKN,0.05,125.0,WeatherDisplay:10.37,2013-02-25 01:32:00,
2013-02-24 15:37:00,72.0,63.2,30.06,NE,45,5.4,10.5,74,0.00,SCT,BKN,0.05,125.0,WeatherDisplay:10.37,2013-02-25 01:37:00,
2013-02-24 15:42:00,70.5,63.0,30.06,ENE,68,2.6,4.6,77,0.00,SCT,BKN,0.05,250.0,WeatherDisplay:10.37,2013-02-25 01:42:00,
2013-02-24 15:47:00,70.0,63.2,30.06,ENE,68,1.4,3.5,79,0.00,SCT,BKN,0.05,125.0,WeatherDisplay:10.37,2013-02-25 01:47:00,
2013-02-24 15:52:00,69.8,63.7,30.03,SSW,202,3.1,5.8,81,0.00,SCT,BKN,0.05,125.0,WeatherDisplay:10.37,2013-02-25 01:52:00,
2013-02-24 15:57:00,69.6,63.2,30.03,ENE,68,5.4,9.2,80,0.00,SCT,BKN,0.05,125.0,WeatherDisplay:10.37,2013-02-25 01:57:00,
2013-02-24 16:02:00,70.0,63.2,30.03,SE,135,6.4,8.1,79,0.00,SCT,BKN,0.05,125.0,WeatherDisplay:10.37,2013-02-25 02:02:00,
2013-02-24 16:07:00,70.0,63.9,30.03,NE,45,4.3,4.6,81,0.00,SCT,BKN,0.05,125.0,WeatherDisplay:10.37,2013-02-25 02:07:00,
2013-02-24 16:12:00,70.2,63.3,30.03,NE,45,4.0,5.8,79,0.00,SCT,BKN,0.05,125.0,WeatherDisplay:10.37,2013-02-25 02:12:00,
2013-02-24 16:17:00,70.3,63.2,30.03,SSW,202,1.4,5.8,78,0.00,SCT,BKN,0.05,125.0,WeatherDisplay:10.37,2013-02-25 02:17:00,
2013-02-24 16:22:00,70.5,63.7,30.06,ESE,112,3.1,5.8,79,0.00,SCT,BKN,0.05,0.0,WeatherDisplay:10.37,2013-02-25 02:22:00,
2013-02-24 16:27:00,70.5,63.3,30.06,NE,45,3.1,5.4,78,0.00,SCT,BKN,0.05,0.0,WeatherDisplay:10.37,2013-02-25 02:27:00,
2013-02-24 16:32:00,70.3,62.4,30.06,NNE,22,2.4,6.9,76,0.00,SCT,BKN,0.05,0.0,WeatherDisplay:10.37,2013-02-25 02:32:00,
2013-02-24 16:37:00,70.5,63.3,30.06,ENE,68,3.6,4.6,78,0.00,SCT,BKN,0.05,0.0,WeatherDisplay:10.37,2013-02-25 02:37:00,
2013-02-24 16:42:00,70.5,62.6,30.06,North,0,4.5,5.8,76,0.00,SCT,BKN,0.05,0.0,WeatherDisplay:10.37,2013-02-25 02:42:00,
2013-02-24 16:47:00,70.3,62.0,30.06,ESE,112,1.4,2.3,75,0.00,SCT,BKN,0.05,0.0,WeatherDisplay:10.37,2013-02-25 02:47:00,
2013-02-24 16:52:00,70.3,62.8,30.06,ENE,68,4.9,6.9,77,0.00,SCT,BKN,0.05,0.0,WeatherDisplay:10.37,2013-02-25 02:52:00,
2013-02-24 16:57:00,70.2,62.2,30.06,SSE,158,3.8,5.8,76,0.00,SCT,BKN,0.05,0.0,WeatherDisplay:10.37,2013-02-25 02:57:00,
2013-02-24 17:02:00,69.6,63.2,30.06,ENE,68,4.3,5.8,80,0.00,SCT,BKN,0.05,0.0,WeatherDisplay:10.37,2013-02-25 03:02:00,
2013-02-24 17:07:00,69.1,62.6,30.06,NW,315,2.4,3.5,80,0.00,SCT,BKN,0.05,0.0,WeatherDisplay:10.37,2013-02-25 03:07:00,
2013-02-24 17:12:00,69.1,63.0,30.06,ESE,112,1.6,4.3,81,0.00,SCT,BKN,0.05,0.0,WeatherDisplay:10.37,2013-02-25 03:12:00,
2013-02-24 17:17:00,68.9,62.8,30.06,NW,315,3.6,5.8,81,0.00,SCT,BKN,0.05,0.0,WeatherDisplay:10.37,2013-02-25 03:17:00,
2013-02-24 17:22:00,69.1,62.3,30.09,SE,135,4.7,8.1,79,0.00,SCT,BKN,0.05,0.0,WeatherDisplay:10.37,2013-02-25 03:22:00,
2013-02-24 17:27:00,69.3,62.8,30.09,East,90,1.2,4.6,80,0.00,SCT,BKN,0.05,0.0,WeatherDisplay:10.37,2013-02-25 03:27:00,
2013-02-24 17:32:00,69.3,62.5,30.09,East,90,6.4,10.4,79,0.00,SCT,BKN,0.05,0.0,WeatherDisplay:10.37,2013-02-25 03:32:00,
2013-02-24 17:37:00,69.4,62.6,30.09,South,180,3.8,9.2,79,0.00,SCT,BKN,0.05,0.0,WeatherDisplay:10.37,2013-02-25 03:37:00,
2013-02-24 17:42:00,69.8,62.3,30.09,ESE,112,6.2,9.2,77,0.00,SCT,BKN,0.05,0.0,WeatherDisplay:10.37,2013-02-25 03:42:00,
2013-02-24 17:47:00,69.8,62.6,30.09,South,180,2.2,3.6,78,0.00,SCT,BKN,0.05,0.0,WeatherDisplay:10.37,2013-02-25 03:47:00,
2013-02-24 17:52:00,69.8,62.6,30.06,ENE,68,4.9,5.8,78,0.00,SCT,BKN,0.05,0.0,WeatherDisplay:10.37,2013-02-25 03:52:00,
2013-02-24 17:57:00,69.8,61.9,30.06,NNE,22,5.4,6.9,76,0.00,SCT,BKN,0.05,0.0,WeatherDisplay:10.37,2013-02-25 03:57:00,
2013-02-24 18:02:00,69.8,62.3,30.06,ESE,112,4.9,6.4,77,0.00,SCT,BKN,0.05,0.0,WeatherDisplay:10.37,2013-02-25 04:02:00,
2013-02-24 18:07:00,69.6,62.5,30.09,NE,45,6.2,15.0,78,0.00,SCT,BKN,0.05,0.0,WeatherDisplay:10.37,2013-02-25 04:07:00,
2013-02-24 18:12:00,70.5,63.0,30.09,NNE,22,4.9,7.6,77,0.00,SCT,BKN,0.05,0.0,WeatherDisplay:10.37,2013-02-25 04:12:00,
2013-02-24 18:17:00,70.5,62.6,30.09,NE,45,2.2,4.6,76,0.00,SCT,BKN,0.05,0.0,WeatherDisplay:10.37,2013-02-25 04:17:00,
2013-02-24 18:22:00,70.3,62.8,30.09,ENE,68,2.6,4.7,77,0.00,SCT,BKN,0.05,0.0,WeatherDisplay:10.37,2013-02-25 04:22:00,
2013-02-24 18:27:00,69.8,61.9,30.09,ESE,112,3.3,4.6,76,0.00,SCT,BKN,0.05,0.0,WeatherDisplay:10.37,2013-02-25 04:27:00,
2013-02-24 18:32:00,69.8,62.3,30.09,ESE,112,6.0,6.0,77,0.00,SCT,BKN,0.05,0.0,WeatherDisplay:10.37,2013-02-25 04:32:00,
2013-02-24 18:37:00,69.6,61.7,30.09,NE,45,4.9,7.4,76,0.00,SCT,BKN,0.05,0.0,WeatherDisplay:10.37,2013-02-25 04:37:00,
2013-02-24 18:42:00,69.6,62.1,30.09,NNW,338,3.6,4.6,77,0.00,SCT,BKN,0.05,0.0,WeatherDisplay:10.37,2013-02-25 04:42:00,
2013-02-24 18:47:00,69.6,61.7,30.09,East,90,4.7,5.8,76,0.00,SCT,BKN,0.05,0.0,WeatherDisplay:10.37,2013-02-25 04:47:00,
2013-02-24 18:52:00,69.6,62.1,30.12,East,90,4.3,6.0,77,0.00,SCT,BKN,0.05,0.0,WeatherDisplay:10.37,2013-02-25 04:52:00,
2013-02-24 18:57:00,69.4,61.5,30.12,ENE,68,4.7,8.1,76,0.00,SCT,BKN,0.05,0.0,WeatherDisplay:10.37,2013-02-25 04:57:00,
2013-02-24 19:00:00,69.4,61.9,30.12,NNE,22,5.9,8.1,77,0.00,SCT,BKN,0.05,0.0,WeatherDisplay:10.37,2013-02-25 05:00:00,
2013-02-24 19:01:00,69.4,61.9,30.12,NE,45,6.4,10.5,77,0.00,SCT,BKN,0.05,0.0,WeatherDisplay:10.37,2013-02-25 05:01:00,
2013-02-24 19:06:00,69.4,61.9,30.12,ENE,68,5.6,6.9,77,0.00,SCT,BKN,0.05,0.0,WeatherDisplay:10.37,2013-02-25 05:06:00,
2013-02-24 19:11:00,69.4,61.9,30.12,NE,45,3.6,10.4,77,0.00,SCT,BKN,0.05,0.0,WeatherDisplay:10.37,2013-02-25 05:11:00,
2013-02-24 19:16:00,69.4,61.9,30.12,NE,45,2.9,4.6,77,0.00,SCT,BKN,0.05,0.0,WeatherDisplay:10.37,2013-02-25 05:16:00,
2013-02-24 19:21:00,69.4,62.3,30.12,ENE,68,3.8,5.8,78,0.00,SCT,BKN,0.05,0.0,WeatherDisplay:10.37,2013-02-25 05:21:00,
2013-02-24 19:26:00,69.4,62.3,30.12,NE,45,4.3,6.9,78,0.00,SCT,BKN,0.05,0.0,WeatherDisplay:10.37,2013-02-25 05:26:00,
2013-02-24 19:31:00,69.4,61.2,30.12,ENE,68,4.0,6.4,75,0.00,SCT,BKN,0.05,0.0,WeatherDisplay:10.37,2013-02-25 05:31:00,
2013-02-24 19:36:00,69.6,61.7,30.12,NE,45,4.7,4.7,76,0.00,SCT,BKN,0.05,0.0,WeatherDisplay:10.37,2013-02-25 05:36:00,
2013-02-24 19:41:00,69.4,61.9,30.12,ENE,68,6.0,9.2,77,0.00,SCT,BKN,0.05,0.0,WeatherDisplay:10.37,2013-02-25 05:41:00,
2013-02-24 19:46:00,69.4,61.9,30.12,NE,45,2.2,4.6,77,0.00,SCT,BKN,0.05,0.0,WeatherDisplay:10.37,2013-02-25 05:46:00,
2013-02-24 19:51:00,69.4,61.9,30.12,ENE,68,4.5,4.6,77,0.00,SCT,BKN,0.05,0.0,WeatherDisplay:10.37,2013-02-25 05:51:00,
2013-02-24 19:56:00,69.4,61.5,30.12,SSW,202,4.7,8.1,76,0.00,SCT,BKN,0.05,0.0,WeatherDisplay:10.37,2013-02-25 05:56:00,
2013-02-24 20:01:00,69.4,61.5,30.12,SSW,202,4.5,5.8,76,0.00,SCT,BKN,0.05,0.0,WeatherDisplay:10.37,2013-02-25 06:01:00,
2013-02-24 20:06:00,69.4,61.9,30.12,NNW,338,2.9,5.8,77,0.00,SCT,BKN,0.05,0.0,WeatherDisplay:10.37,2013-02-25 06:06:00,
2013-02-24 20:11:00,69.3,61.7,30.12,SE,135,3.6,4.6,77,0.00,SCT,BKN,0.05,0.0,WeatherDisplay:10.37,2013-02-25 06:11:00,
2013-02-24 20:16:00,69.1,61.2,30.12,East,90,3.8,5.8,76,0.00,SCT,BKN,0.05,0.0,WeatherDisplay:10.37,2013-02-25 06:16:00,
2013-02-24 20:21:00,69.3,61.0,30.12,NE,45,7.1,12.7,75,0.00,SCT,BKN,0.05,0.0,WeatherDisplay:10.37,2013-02-25 06:21:00,
2013-02-24 20:26:00,69.3,61.4,30.12,NW,315,4.9,12.7,76,0.00,SCT,BKN,0.05,0.0,WeatherDisplay:10.37,2013-02-25 06:26:00,
2013-02-24 20:31:00,69.3,61.0,30.12,North,0,2.6,7.1,75,0.00,SCT,BKN,0.05,0.0,WeatherDisplay:10.37,2013-02-25 06:31:00,
2013-02-24 20:36:00,69.4,61.2,30.12,ENE,68,6.7,12.7,75,0.00,SCT,BKN,0.05,0.0,WeatherDisplay:10.37,2013-02-25 06:36:00,
2013-02-24 20:41:00,69.3,61.4,30.12,NE,45,3.8,8.5,76,0.00,SCT,BKN,0.05,0.0,WeatherDisplay:10.37,2013-02-25 06:41:00,
2013-02-24 20:46:00,69.3,61.4,30.12,NE,45,4.9,7.6,76,0.00,SCT,BKN,0.05,0.0,WeatherDisplay:10.37,2013-02-25 06:46:00,
2013-02-24 20:51:00,69.3,61.4,30.12,NE,45,6.2,10.4,76,0.00,SCT,BKN,0.05,0.0,WeatherDisplay:10.37,2013-02-25 06:51:00,
2013-02-24 20:56:00,69.3,61.4,30.12,NNE,22,4.3,5.8,76,0.00,SCT,BKN,0.05,0.0,WeatherDisplay:10.37,2013-02-25 06:56:00,
2013-02-24 21:01:00,69.3,61.4,30.12,ENE,68,2.2,6.9,76,0.00,SCT,BKN,0.05,0.0,WeatherDisplay:10.37,2013-02-25 07:01:00,
2013-02-24 21:06:00,69.4,61.5,30.09,NE,45,7.8,8.1,76,0.00,SCT,BKN,0.05,0.0,WeatherDisplay:10.37,2013-02-25 07:06:00,
2013-02-24 21:11:00,69.4,61.9,30.09,ESE,112,3.8,4.6,77,0.00,SCT,BKN,0.05,0.0,WeatherDisplay:10.37,2013-02-25 07:11:00,
2013-02-24 21:16:00,69.4,61.9,30.09,ENE,68,5.4,5.8,77,0.00,SCT,BKN,0.05,0.0,WeatherDisplay:10.37,2013-02-25 07:16:00,
2013-02-24 21:21:00,69.3,61.7,30.15,SSE,158,2.0,4.6,77,0.00,SCT,BKN,0.05,0.0,WeatherDisplay:10.37,2013-02-25 07:21:00,
2013-02-24 21:26:00,69.3,61.4,30.15,East,90,6.7,6.9,76,0.00,SCT,BKN,0.05,0.0,WeatherDisplay:10.37,2013-02-25 07:26:00,
2013-02-24 21:31:00,69.4,61.2,30.15,SSW,202,4.7,6.9,75,0.00,SCT,BKN,0.05,0.0,WeatherDisplay:10.37,2013-02-25 07:31:00,
2013-02-24 21:36:00,69.3,60.6,30.15,East,90,3.6,4.6,74,0.00,SCT,BKN,0.05,0.0,WeatherDisplay:10.37,2013-02-25 07:36:00,
2013-02-24 21:41:00,69.1,60.4,30.15,NE,45,6.2,6.2,74,0.00,SCT,BKN,0.05,0.0,WeatherDisplay:10.37,2013-02-25 07:41:00,
2013-02-24 21:46:00,69.3,61.0,30.15,West,270,6.9,8.1,75,0.00,SCT,BKN,0.05,0.0,WeatherDisplay:10.37,2013-02-25 07:46:00,
2013-02-24 21:51:00,69.3,60.6,30.12,SSE,158,8.7,11.5,74,0.00,SCT,BKN,0.05,0.0,WeatherDisplay:10.37,2013-02-25 07:51:00,
2013-02-24 21:56:00,69.3,60.2,30.12,ENE,68,4.3,5.8,73,0.00,SCT,BKN,0.05,0.0,WeatherDisplay:10.37,2013-02-25 07:56:00,
2013-02-24 22:01:00,69.1,60.1,30.12,East,90,5.6,10.4,73,0.00,SCT,BKN,0.05,0.0,WeatherDisplay:10.37,2013-02-25 08:01:00,
2013-02-24 22:06:00,69.1,60.1,30.15,SE,135,6.0,11.5,73,0.00,SCT,BKN,0.05,0.0,WeatherDisplay:10.37,2013-02-25 08:06:00,
2013-02-24 22:11:00,69.1,60.4,30.15,North,0,3.3,4.6,74,0.00,SCT,BKN,0.05,0.0,WeatherDisplay:10.37,2013-02-25 08:11:00,
2013-02-24 22:16:00,69.1,60.4,30.15,NNW,338,9.0,9.0,74,0.00,SCT,BKN,0.05,0.0,WeatherDisplay:10.37,2013-02-25 08:16:00,
2013-02-24 22:21:00,69.1,60.4,30.15,SW,225,4.5,5.8,74,0.00,SCT,BKN,0.05,0.0,WeatherDisplay:10.37,2013-02-25 08:21:00,
2013-02-24 22:26:00,69.1,60.4,30.15,East,90,2.0,2.3,74,0.00,SCT,BKN,0.05,0.0,WeatherDisplay:10.37,2013-02-25 08:26:00,
2013-02-24 22:31:00,69.1,60.8,30.15,NE,45,2.9,8.1,75,0.00,SCT,BKN,0.05,0.0,WeatherDisplay:10.37,2013-02-25 08:31:00,
2013-02-24 22:36:00,68.9,60.6,30.15,ESE,112,3.6,5.8,75,0.00,SCT,BKN,0.05,0.0,WeatherDisplay:10.37,2013-02-25 08:36:00,
2013-02-24 22:41:00,68.9,60.6,30.15,ENE,68,2.9,4.6,75,0.00,SCT,BKN,0.05,0.0,WeatherDisplay:10.37,2013-02-25 08:41:00,
2013-02-24 22:46:00,68.9,60.6,30.15,ESE,112,3.8,5.8,75,0.00,SCT,BKN,0.05,0.0,WeatherDisplay:10.37,2013-02-25 08:46:00,
2013-02-24 22:51:00,68.9,60.6,30.15,ENE,68,3.3,8.1,75,0.00,SCT,BKN,0.05,0.0,WeatherDisplay:10.37,2013-02-25 08:51:00,
2013-02-24 22:56:00,68.9,60.6,30.15,North,0,5.9,10.4,75,0.00,SCT,BKN,0.05,0.0,WeatherDisplay:10.37,2013-02-25 08:56:00,
2013-02-24 23:01:00,69.1,60.4,30.15,NW,315,2.9,4.6,74,0.00,SCT,BKN,0.05,0.0,WeatherDisplay:10.37,2013-02-25 09:01:00,
2013-02-24 23:06:00,68.9,60.6,30.15,NE,45,3.8,5.8,75,0.00,SCT,BKN,0.05,0.0,WeatherDisplay:10.37,2013-02-25 09:06:00,
2013-02-24 23:11:00,68.7,61.2,30.15,NNE,22,4.5,8.1,77,0.00,SCT,BKN,0.05,0.0,WeatherDisplay:10.37,2013-02-25 09:11:00,
2013-02-24 23:16:00,68.5,61.4,30.15,NE,45,3.8,5.8,78,0.00,SCT,BKN,0.05,0.0,WeatherDisplay:10.37,2013-02-25 09:16:00,
2013-02-24 23:21:00,68.7,61.2,30.15,WNW,292,4.3,6.9,77,0.00,SCT,BKN,0.05,0.0,WeatherDisplay:10.37,2013-02-25 09:21:00,
2013-02-24 23:26:00,68.7,61.2,30.15,ENE,68,1.4,4.6,77,0.00,SCT,BKN,0.05,0.0,WeatherDisplay:10.37,2013-02-25 09:26:00,
2013-02-24 23:31:00,68.7,61.2,30.15,ESE,112,2.0,6.0,77,0.00,SCT,BKN,0.05,0.0,WeatherDisplay:10.37,2013-02-25 09:31:00,
2013-02-24 23:36:00,68.7,60.8,30.18,South,180,4.5,6.9,76,0.00,SCT,BKN,0.05,0.0,WeatherDisplay:10.37,2013-02-25 09:36:00,
2013-02-24 23:41:00,68.7,60.8,30.18,East,90,4.5,6.9,76,0.00,SCT,BKN,0.05,0.0,WeatherDisplay:10.37,2013-02-25 09:41:00,
2013-02-24 23:46:00,68.9,61.0,30.18,ENE,68,5.4,5.8,76,0.00,SCT,BKN,0.05,0.0,WeatherDisplay:10.37,2013-02-25 09:46:00,
2013-02-24 23:51:00,68.7,60.1,30.18,SSW,202,6.2,10.4,74,0.00,SCT,BKN,0.05,0.0,WeatherDisplay:10.37,2013-02-25 09:51:00,
2013-02-24 23:56:00,68.7,60.5,30.18,East,90,3.1,6.2,75,0.00,SCT,BKN,0.05,0.0,WeatherDisplay:10.37,2013-02-25 09:56:00,